AUA153D LOWW-LSGG

Flight info

Callsign AUA153D
Flight time N/A
Altitude 36000
Route SOVI1C SITNI BAGSI MATIG SBG TRAUN RAVED L856 TRA LUTIX
Aircraft A320/M-SDE3FGHIRWY/LB1

Departure

Time 2026-04-26 14:42
Airport Vienna International Airport (LOWW)

Arrival

Time N/A
Airport Geneva International Airport (LSGG)
Time Latitude Longitude Altitude Speed Heading
2026-04-26 14:31 48.11656 16.56957 605 ft 0 kts 26°
2026-04-26 14:34 48.11643 16.56948 605 ft 2 kts 26°
2026-04-26 14:35 48.11630 16.56938 605 ft 2 kts 26°
2026-04-26 14:35 48.11617 16.56928 605 ft 2 kts 25°
2026-04-26 14:35 48.11604 16.56915 605 ft 2 kts 54°
2026-04-26 14:35 48.11597 16.56895 605 ft 2 kts 76°
2026-04-26 14:36 48.11596 16.56873 605 ft 2 kts 99°
2026-04-26 14:36 48.11601 16.56852 605 ft 2 kts 121°
2026-04-26 14:36 48.11605 16.56841 605 ft 0 kts 117°
2026-04-26 14:38 48.11604 16.56842 605 ft 0 kts 117°
2026-04-26 14:38 48.11599 16.56860 605 ft 2 kts 116°
2026-04-26 14:38 48.11584 16.56899 605 ft 6 kts 130°
2026-04-26 14:39 48.11521 16.56912 605 ft 13 kts 207°
2026-04-26 14:39 48.11425 16.56902 605 ft 15 kts 133°
2026-04-26 14:39 48.11370 16.57063 605 ft 20 kts 116°
2026-04-26 14:39 48.11297 16.57286 603 ft 27 kts 116°
2026-04-26 14:40 48.11213 16.57545 598 ft 22 kts 115°
2026-04-26 14:40 48.11116 16.57565 599 ft 17 kts 219°
2026-04-26 14:40 48.11068 16.57519 599 ft 0 kts 206°
2026-04-26 14:40 48.11067 16.57518 599 ft 1 kts 206°
2026-04-26 14:41 48.11033 16.57493 599 ft 9 kts 207°
2026-04-26 14:41 48.10961 16.57428 601 ft 12 kts 247°
2026-04-26 14:41 48.10986 16.57318 603 ft 16 kts 296°
2026-04-26 14:41 48.11150 16.56815 603 ft 88 kts 296°
2026-04-26 14:42 48.11511 16.55702 584 ft 147 kts 296°
2026-04-26 14:42 48.11995 16.54176 871 ft 169 kts 294°
2026-04-26 14:42 48.12170 16.52414 1463 ft 179 kts 268°
2026-04-26 14:42 48.11741 16.50643 2118 ft 185 kts 246°
2026-04-26 14:43 48.11061 16.48926 2558 ft 200 kts 244°
2026-04-26 14:43 48.10323 16.47060 2919 ft 220 kts 245°
2026-04-26 14:43 48.09491 16.45027 3324 ft 241 kts 240°
2026-04-26 14:43 48.08467 16.42908 3812 ft 259 kts 238°
2026-04-26 14:44 48.07362 16.40701 4435 ft 271 kts 238°
2026-04-26 14:44 48.06235 16.38461 5340 ft 271 kts 238°
2026-04-26 14:44 48.05116 16.36225 6299 ft 269 kts 239°
2026-04-26 14:44 48.04035 16.33983 7208 ft 267 kts 244°
2026-04-26 14:45 48.03392 16.31451 8015 ft 263 kts 265°
2026-04-26 14:45 48.03305 16.29669 8568 ft 261 kts 274°
2026-04-26 14:45 48.03381 16.26061 9655 ft 264 kts 276°
2026-04-26 14:45 48.03449 16.23318 10432 ft 268 kts 276°
2026-04-26 14:46 48.03517 16.20474 10898 ft 284 kts 276°
2026-04-26 14:46 48.03585 16.17440 11283 ft 301 kts 275°
2026-04-26 14:46 48.03648 16.14270 11862 ft 311 kts 275°
2026-04-26 14:46 48.03705 16.11059 12592 ft 314 kts 275°
2026-04-26 14:47 48.03760 16.07769 13321 ft 318 kts 275°
2026-04-26 14:47 48.03814 16.04476 14022 ft 322 kts 275°
2026-04-26 14:47 48.03867 16.01137 14720 ft 326 kts 275°
2026-04-26 14:47 48.03921 15.97738 15393 ft 330 kts 275°
2026-04-26 14:48 48.03975 15.94292 16063 ft 334 kts 275°
2026-04-26 14:48 48.04028 15.90818 16705 ft 338 kts 275°
2026-04-26 14:48 48.04081 15.87267 17350 ft 342 kts 275°
2026-04-26 14:48 48.04132 15.83717 17986 ft 345 kts 275°
2026-04-26 14:49 48.04183 15.80104 18592 ft 349 kts 275°
2026-04-26 14:49 48.04233 15.76473 19215 ft 352 kts 275°
2026-04-26 14:49 48.04283 15.72820 19843 ft 354 kts 275°
2026-04-26 14:49 48.04331 15.69181 20449 ft 357 kts 274°
2026-04-26 14:50 48.04377 15.65466 21047 ft 359 kts 274°
2026-04-26 14:50 48.04424 15.61711 21644 ft 361 kts 274°
2026-04-26 14:50 48.04468 15.57947 22223 ft 363 kts 274°
2026-04-26 14:50 48.04511 15.54152 22792 ft 365 kts 274°
2026-04-26 14:51 48.04552 15.50357 23333 ft 368 kts 273°
2026-04-26 14:51 48.04591 15.46536 23852 ft 370 kts 273°
2026-04-26 14:51 48.04630 15.42712 24359 ft 373 kts 273°
2026-04-26 14:51 48.04671 15.38779 24858 ft 376 kts 273°
2026-04-26 14:52 48.04723 15.34876 25326 ft 378 kts 273°
2026-04-26 14:52 48.04794 15.30944 25791 ft 381 kts 273°
2026-04-26 14:52 48.04866 15.26954 26225 ft 384 kts 273°
2026-04-26 14:52 48.04934 15.22909 26655 ft 387 kts 273°
2026-04-26 14:53 48.04998 15.18885 27080 ft 390 kts 273°
2026-04-26 14:53 48.05059 15.14811 27525 ft 391 kts 273°
2026-04-26 14:53 48.05119 15.10761 27940 ft 393 kts 273°
2026-04-26 14:53 48.05177 15.06639 28334 ft 396 kts 273°
2026-04-26 14:54 48.05232 15.02508 28718 ft 398 kts 273°
2026-04-26 14:54 48.05284 14.98389 29087 ft 400 kts 273°
2026-04-26 14:54 48.05336 14.94215 29440 ft 402 kts 273°
2026-04-26 14:54 48.05386 14.90049 29765 ft 405 kts 273°
2026-04-26 14:55 48.05438 14.85839 30146 ft 406 kts 273°
2026-04-26 14:55 48.05488 14.81630 30624 ft 404 kts 273°
2026-04-26 14:55 48.05533 14.77442 31101 ft 402 kts 273°
2026-04-26 14:55 48.05571 14.73290 31534 ft 401 kts 272°
2026-04-26 14:56 48.05606 14.69116 31946 ft 401 kts 272°
2026-04-26 14:56 48.05637 14.64954 32340 ft 400 kts 272°
2026-04-26 14:56 48.05666 14.60829 32715 ft 399 kts 272°
2026-04-26 14:56 48.05693 14.56715 33074 ft 399 kts 272°
2026-04-26 14:57 48.05717 14.52579 33418 ft 398 kts 272°
2026-04-26 14:57 48.05740 14.48427 33778 ft 397 kts 272°
2026-04-26 14:57 48.05759 14.44321 34134 ft 396 kts 272°
2026-04-26 14:57 48.05777 14.40214 34480 ft 395 kts 272°
2026-04-26 14:58 48.05794 14.36113 34765 ft 395 kts 272°
2026-04-26 14:58 48.05812 14.32029 34989 ft 395 kts 271°
2026-04-26 14:58 48.05830 14.27860 35197 ft 396 kts 271°
2026-04-26 14:58 48.05853 14.23738 35389 ft 397 kts 271°
2026-04-26 14:59 48.05875 14.19664 35572 ft 398 kts 271°
2026-04-26 14:59 48.05893 14.15535 35747 ft 399 kts 271°
2026-04-26 14:59 48.05907 14.11390 35918 ft 400 kts 271°
2026-04-26 14:59 48.05915 14.08615 36032 ft 401 kts 271°
2026-04-26 15:00 48.05928 14.03039 36168 ft 403 kts 271°
2026-04-26 15:00 48.05938 13.94702 36180 ft 403 kts 271°
2026-04-26 15:01 48.05943 13.86327 36181 ft 403 kts 271°
2026-04-26 15:01 48.05941 13.77951 36181 ft 408 kts 271°
2026-04-26 15:02 48.05931 13.69413 36180 ft 417 kts 271°
2026-04-26 15:02 48.05917 13.60712 36178 ft 424 kts 271°
2026-04-26 15:03 48.05689 13.51879 36183 ft 430 kts 266°
2026-04-26 15:03 48.04990 13.43025 36181 ft 431 kts 264°
2026-04-26 15:04 48.04232 13.34134 36178 ft 431 kts 263°
2026-04-26 15:04 48.03474 13.25299 36179 ft 431 kts 263°
2026-04-26 15:05 48.02703 13.16400 36180 ft 431 kts 263°
2026-04-26 15:05 48.01924 13.07528 36179 ft 431 kts 263°
2026-04-26 15:06 48.01141 12.98701 36179 ft 431 kts 263°
2026-04-26 15:06 48.00351 12.89859 36181 ft 431 kts 263°
2026-04-26 15:07 47.99163 12.76620 36184 ft 431 kts 263°
2026-04-26 15:07 47.98345 12.67736 36179 ft 431 kts 263°
2026-04-26 15:08 47.97530 12.58932 36174 ft 431 kts 263°
2026-04-26 15:08 47.96873 12.50057 36172 ft 429 kts 265°
2026-04-26 15:09 47.96258 12.41105 36175 ft 429 kts 265°
2026-04-26 15:09 47.95626 12.32250 36175 ft 429 kts 264°
2026-04-26 15:10 47.95084 12.24816 36171 ft 429 kts 264°
2026-04-26 15:10 47.94318 12.14490 36172 ft 428 kts 264°
2026-04-26 15:11 47.93650 12.05616 36168 ft 429 kts 264°
2026-04-26 15:11 47.92974 11.96713 36168 ft 429 kts 264°
2026-04-26 15:12 47.92287 11.87820 36174 ft 429 kts 264°
2026-04-26 15:12 47.91596 11.78954 36178 ft 428 kts 264°
2026-04-26 15:13 47.90903 11.70128 36181 ft 428 kts 264°
2026-04-26 15:13 47.90197 11.61234 36179 ft 428 kts 264°
2026-04-26 15:14 47.89516 11.52927 36182 ft 428 kts 264°
2026-04-26 15:14 47.88775 11.44094 36186 ft 428 kts 264°
2026-04-26 15:15 47.88041 11.35260 36191 ft 428 kts 264°
2026-04-26 15:15 47.87315 11.26514 36191 ft 428 kts 263°
2026-04-26 15:16 47.86578 11.17652 36189 ft 428 kts 263°
2026-04-26 15:16 47.85840 11.08853 36191 ft 428 kts 263°
2026-04-26 15:17 47.85218 11.01535 36196 ft 428 kts 263°
2026-04-26 15:17 47.84365 10.91580 36202 ft 428 kts 263°
2026-04-26 15:18 47.83602 10.82767 36203 ft 429 kts 263°
2026-04-26 15:18 47.82832 10.73976 36201 ft 429 kts 263°
2026-04-26 15:19 47.82070 10.65337 36197 ft 430 kts 263°
2026-04-26 15:19 47.81289 10.56536 36194 ft 430 kts 263°
2026-04-26 15:20 47.80182 10.47762 36190 ft 434 kts 256°
2026-04-26 15:20 47.78516 10.39082 36189 ft 438 kts 255°
2026-04-26 15:21 47.76832 10.30374 36193 ft 438 kts 255°
2026-04-26 15:21 47.75145 10.21583 36194 ft 438 kts 255°
2026-04-26 15:22 47.73476 10.12898 36192 ft 439 kts 255°
2026-04-26 15:22 47.71804 10.04229 36190 ft 439 kts 255°
2026-04-26 15:23 47.70129 9.95575 36188 ft 439 kts 255°
2026-04-26 15:23 47.68430 9.86842 36188 ft 439 kts 255°
2026-04-26 15:24 47.66726 9.78120 36183 ft 440 kts 255°
2026-04-26 15:24 47.65022 9.69433 36179 ft 441 kts 255°
2026-04-26 15:25 47.63327 9.60834 36179 ft 441 kts 255°
2026-04-26 15:25 47.61610 9.52160 36179 ft 441 kts 255°
2026-04-26 15:26 47.59904 9.43583 36177 ft 441 kts 255°
2026-04-26 15:26 47.58174 9.34930 36173 ft 441 kts 255°
2026-04-26 15:27 47.56467 9.26398 36179 ft 441 kts 255°
2026-04-26 15:27 47.54733 9.17771 36181 ft 441 kts 255°
2026-04-26 15:28 47.52996 9.09175 36180 ft 441 kts 255°
2026-04-26 15:28 47.51245 9.00563 36189 ft 441 kts 255°
2026-04-26 15:29 47.49512 8.92076 36193 ft 441 kts 255°
2026-04-26 15:30 47.46048 8.75219 36187 ft 442 kts 255°
2026-04-26 15:30 47.44336 8.66938 36183 ft 442 kts 255°